DECAYED

STARLINK-1586, 46137 (Decayed)

Orbit data source: Space-Track

STARLINK-1586, 46137 was a payload satellite owned by SpaceX/Seattle (US) in LEO that was launched on Tue, 18 Aug 2020 UTC via an FALCON 9 launch vehicle from the Air Force Eastern Test Range (AFETR). Payload-class satellites include a variety of spacecraft equipped with specific instruments for various scientific and technological missions. These include communications satellites like Starlink; space stations such as the ISS; scientific satellites like the Hubble; Earth observation satellites from companies like Planet Labs, Umbra, and HawkEye 360; GPS; miniature CubeSats for education and research; and military/defense satellites.

Not visible in the next 10 days
Identifier
46137, 2020-057W
Orbit
Decayed
Country
Flag of USUS
Related business
Manufacturer
SpaceX/Seattle
Mission
Decayed Commercial Communications
Bus & Motor
STARLINK, Unknown motor
Mass
260 kg wet, ~248 kg dry
Launch date (UTC)
2020-08-18 (6 years ago)
Launch vehicle
FALCON 9
Launch site
Air Force Eastern Test Range (AFETR)
Object type
Payload
Rocket body
Debris
Shape & HBR
Box + 1 Pan, 10.1 m
Radar Cross Section
13.562 m², Large (>1 m²)

Expand to show TLE details & history
Last TLE update: 6 months ago

TLE from 6 months ago
0 STARLINK-1586
1 46137U 20057W   25268.98529082  .13580500  12464-4  50438-3 0  9997
2 46137  53.0222 248.4282 0003987 259.2028 100.8571 16.44106175282461
Epoch: 2025-09-25T23:38Z
TLE epoch observation values (Epoch: 2025-09-25T23:38:49.126Z)
Latitude
-0.00006°
Longitude
-111.3151°
Altitude
156.322 km
Speed
7.813 km/s
True Right ascension
16h 33m 42s
True Declination
0° 00' 00"
Sunlit
Object was in daylight at epoch
Visualization orbit readout
Latitude
Unknown
Longitude
Unknown
Altitude
Unknown
Speed
Unknown
Apparent Right ascension
Unknown
Apparent Declination
Unknown
Sunlit
N/A
Visualization observer readout
Local Sidereal Time
17:23:26
Azimuth
Unknown
Elevation
Unknown
Doppler factor
Unknown
Orbital elements
Apogee altitude
157.799 km
Perigee altitude
152.589 km
Semi-major axis
6,533.331 km
Eccentricity
0.0004
Inclination
53.0222°
RAAN
248.4282°
Arg. of periapsis
259.2028°
True anomaly
100.90197°
Mean anomaly
100.8571°
Eccentric anomaly
100.87953°
Mean motion
4.10999 °/min
Orbital period
87.59 mins
BSTAR
0.00050438
Loading maneuver chart data...
Computing Atmospheric mass density...

Documentation

Showing up to 5 results
|